EW7347 Weather Reports


Display with metric or nautical units.
time (UTC)temp
F
wind
direction
speed
MPH
gust
MPH
rain 1hr
in
rain 24hr
in
rain mn
in
humidity
%
barometer
mb
20260510195159 49 55 0.0 0.0 0.00 0.00 0.00 61 1014.0
20260510194643 49 351 0.0 0.0 0.00 0.00 0.00 60 1013.9
20260510194129 49 155 0.0 0.0 0.00 0.00 0.00 60 1014.0
20260510193637 49 167 0.0 0.0 0.00 0.00 0.00 59 1014.1
20260510193127 50 183 0.0 0.0 0.00 0.00 0.00 58 1014.1
20260510192005 50 55 0.0 0.0 0.00 0.00 0.00 57 1014.1
20260510190820 51 51 0.0 1.0 0.00 0.00 0.00 55 1014.1
20260510190318 52 120 0.0 0.0 0.00 0.00 0.00 56 1014.1
20260510185814 52 200 0.0 0.0 0.00 0.00 0.00 55 1014.1
20260510185256 52 273 0.0 0.0 0.00 0.00 0.00 54 1014.2
20260510184131 52 12 0.0 0.0 0.00 0.00 0.00 49 1014.2
20260510183626 53 102 0.0 0.0 0.00 0.00 0.00 49 1014.3
20260510182443 53 121 0.0 0.0 0.00 0.00 0.00 49 1014.1
20260510180702 55 287 0.0 1.0 0.00 0.00 0.00 47 1014.2
20260510180205 55 9 0.0 3.0 0.00 0.00 0.00 45 1014.1
20260510175645 55 59 0.0 1.0 0.00 0.00 0.00 45 1014.1
20260510175147 56 257 0.0 1.0 0.00 0.00 0.00 45 1014.1
20260510174647 57 28 0.0 0.0 0.00 0.00 0.00 45 1014.1
20260510173548 58 30 0.0 3.0 0.00 0.00 0.00 42 1014.2
20260510173042 58 51 0.0 0.0 0.00 0.00 0.00 42 1014.2
20260510172546 58 329 0.0 0.0 0.00 0.00 0.00 43 1014.2
20260510171407 58 121 0.0 0.0 0.00 0.00 0.00 43 1014.3
20260510170904 59 75 0.0 0.0 0.00 0.00 0.00 43 1014.3
20260510170403 58 124 0.0 1.0 0.00 0.00 0.00 43 1014.5
20260510165913 58 290 0.0 0.0 0.00 0.00 0.00 45 1014.4
20260510165357 58 165 0.0 0.0 0.00 0.00 0.00 42 1014.4
20260510164216 57 91 0.0 1.0 0.00 0.00 0.00 44 1014.7
20260510163657 58 303 0.0 3.0 0.00 0.00 0.00 43 1014.7
20260510163159 58 49 0.0 0.0 0.00 0.00 0.00 44 1014.8
20260510162647 58 80 0.0 0.0 0.00 0.00 0.00 44 1014.8
20260510162130 57 323 0.0 1.0 0.00 0.00 0.00 45 1015.0
20260510161614 57 17 0.0 0.0 0.00 0.00 0.00 45 1015.0
20260510161054 57 217 0.0 0.0 0.00 0.00 0.00 46 1015.0
20260510155333 57 288 0.0 0.0 0.00 0.00 0.00 45 1015.2
20260510154818 57 348 0.0 3.0 0.00 0.00 0.00 47 1015.3
20260510153017 58 336 0.0 0.0 0.00 0.00 0.00 47 1015.5
20260510152502 58 275 0.0 3.0 0.00 0.00 0.00 45 1015.5
20260510152003 58 313 0.0 2.0 0.00 0.00 0.00 46 1015.4
20260510151452 58 39 0.0 4.0 0.00 0.00 0.00 46 1015.5
20260510150934 59 263 0.0 0.0 0.00 0.00 0.00 46 1015.6
20260510150438 59 355 0.0 0.0 0.00 0.00 0.00 46 1015.6
20260510145921 59 88 0.0 0.0 0.00 0.00 0.00 45 1015.6
20260510145420 59 65 0.0 0.0 0.00 0.00 0.00 45 1015.7
20260510144242 59 172 0.0 4.0 0.00 0.00 0.00 43 1015.9
20260510143743 60 279 0.0 1.0 0.00 0.00 0.00 45 1015.9
20260510142617 59 256 0.0 0.0 0.00 0.00 0.00 46 1015.9
20260510142101 60 248 0.0 0.0 0.00 0.00 0.00 45 1015.9
20260510140248 60 10 0.0 0.0 0.00 0.00 0.00 45 1016.1
20260510135738 60 39 0.0 5.0 0.00 0.00 0.00 47 1016.1
20260510135232 60 0 0.0 7.0 0.00 0.00 0.00 45 1016.1
20260510133444 59 246 0.0 5.0 0.00 0.00 0.00 47 1016.1
20260510132940 60 88 0.0 0.0 0.00 0.00 0.00 48 1016.2
20260510131811 60 114 0.0 2.0 0.00 0.00 0.00 47 1016.3
20260510131259 59 280 0.0 0.0 0.00 0.00 0.00 49 1016.3
20260510125507 58 306 0.0 2.0 0.00 0.00 0.00 49 1016.5
20260510124948 58 269 0.0 5.0 0.00 0.00 0.00 50 1016.6
20260510124441 59 344 0.0 9.0 0.00 0.00 0.00 49 1016.6
20260510123935 59 283 0.0 0.0 0.00 0.00 0.00 50 1016.6
20260510123428 59 98 0.0 0.0 0.00 0.00 0.00 50 1016.8
20260510122915 59 313 0.0 6.0 0.00 0.00 0.00 50 1016.8
20260510122407 59 76 0.0 6.0 0.00 0.00 0.00 50 1016.8
20260510121905 58 53 0.0 3.0 0.00 0.00 0.00 50 1016.9
20260510121409 58 196 0.0 0.0 0.00 0.00 0.00 51 1017.0
20260510120859 58 196 0.0 4.0 0.00 0.00 0.00 54 1017.1
20260510120340 57 285 0.0 0.0 0.00 0.00 0.00 53 1017.1
20260510115834 56 5 0.0 0.0 0.00 0.00 0.00 56 1017.2
20260510114725 56 119 0.0 0.0 0.00 0.00 0.00 55 1017.4
20260510114234 56 116 0.0 6.0 0.00 0.00 0.00 56 1017.4
20260510113718 56 49 0.0 3.0 0.00 0.00 0.00 56 1017.5
20260510113206 56 47 0.0 0.0 0.00 0.00 0.00 58 1017.4
20260510112652 55 215 0.0 6.0 0.00 0.00 0.00 59 1017.5
20260510112151 55 271 0.0 0.0 0.00 0.00 0.00 60 1017.7
20260510111653 55 23 0.0 10.0 0.00 0.00 0.00 57 1017.7
20260510111153 55 347 0.0 7.0 0.00 0.00 0.00 58 1017.7
20260510110028 55 292 0.0 8.0 0.00 0.00 0.00 57 1017.8
20260510105523 55 315 0.0 8.0 0.00 0.00 0.00 59 1017.8
20260510104358 54 123 0.0 0.0 0.00 0.00 0.00 63 1018.0
20260510103851 54 0 0.0 3.0 0.00 0.00 0.00 62 1017.9
20260510103342 54 289 0.0 6.0 0.00 0.00 0.00 62 1017.8
20260510102826 54 259 0.0 6.0 0.00 0.00 0.00 63 1017.9
20260510102315 53 262 0.0 4.0 0.00 0.00 0.00 63 1017.9
20260510101813 53 126 0.0 4.0 0.00 0.00 0.00 63 1018.0
20260510101315 53 162 0.0 4.0 0.00 0.00 0.00 63 1018.1
20260510100819 53 263 0.0 4.0 0.00 0.00 0.00 63 1018.0
20260510100312 54 130 0.0 4.0 0.00 0.00 0.00 65 1018.0
20260510095816 54 279 0.0 0.0 0.00 0.00 0.00 64 1018.0
20260510095322 54 118 0.0 0.0 0.00 0.00 0.00 64 1018.0
20260510094805 54 355 0.0 7.0 0.00 0.00 0.00 64 1018.0
20260510094250 54 259 0.0 7.0 0.00 0.00 0.00 63 1018.1
20260510093749 54 263 0.0 5.0 0.00 0.00 0.00 65 1018.1
20260510093248 54 304 0.0 10.0 0.00 0.00 0.00 64 1018.1
20260510092749 54 274 0.0 10.0 0.00 0.00 0.00 64 1018.2
20260510092259 55 276 0.0 10.0 0.00 0.00 0.00 63 1018.1
20260510091751 55 175 0.0 6.0 0.00 0.00 0.00 64 1018.1
20260510091253 55 300 0.0 2.0 0.00 0.00 0.00 65 1018.2
20260510090744 55 155 0.0 7.0 0.00 0.00 0.00 65 1018.3
20260510090249 54 230 0.0 7.0 0.00 0.00 0.00 65 1018.3
20260510085115 54 68 0.0 3.0 0.00 0.00 0.00 68 1018.3
20260510084619 53 290 0.0 3.0 0.00 0.00 0.00 68 1018.3
20260510083455 52 74 1.0 7.0 0.00 0.00 0.00 71 1018.3
20260510082324 51 5 1.0 8.0 0.00 0.00 0.00 72 1018.4
20260510081207 50 355 0.0 4.0 0.00 0.00 0.00 74 1018.5
20260510080703 50 270 0.0 4.0 0.00 0.00 0.00 75 1018.5
20260510075514 49 186 0.0 8.0 0.00 0.00 0.00 76 1018.6
20260510075003 49 274 0.0 8.0 0.00 0.00 0.00 76 1018.5
20260510074501 49 96 0.0 8.0 0.00 0.00 0.00 77 1018.5
20260510073947 49 5 0.0 8.0 0.00 0.00 0.00 77 1018.6
20260510073432 49 284 0.0 5.0 0.00 0.00 0.00 78 1018.6
20260510072912 48 139 0.0 5.0 0.00 0.00 0.00 78 1018.6
20260510072415 48 298 0.0 2.0 0.00 0.00 0.00 79 1018.5
20260510071901 48 321 0.0 8.0 0.00 0.00 0.00 78 1018.5
20260510071350 48 285 0.0 8.0 0.00 0.00 0.00 79 1018.5
20260510070832 48 74 0.0 8.0 0.00 0.00 0.00 79 1018.4
20260510070325 48 345 0.0 8.0 0.00 0.00 0.00 79 1018.5
20260510065150 48 134 0.0 5.0 0.00 0.00 0.00 79 1018.3
20260510064648 48 322 0.0 9.0 0.00 0.00 0.00 79 1018.3
20260510064137 48 74 0.0 9.0 0.00 0.00 0.00 80 1018.2
20260510063632 48 280 0.0 9.0 0.00 0.00 0.00 80 1018.2
20260510063120 48 323 0.0 9.0 0.00 0.00 0.00 80 1018.3
20260510061944 48 304 0.0 7.0 0.00 0.00 0.00 81 1018.2
20260510061443 48 316 0.0 7.0 0.00 0.00 0.00 81 1018.2
20260510060926 48 298 0.0 7.0 0.00 0.00 0.00 81 1018.2
20260510060417 48 337 0.0 4.0 0.00 0.00 0.00 82 1018.2
20260510055907 48 148 0.0 4.0 0.00 0.00 0.00 82 1018.2
20260510055355 48 267 0.0 9.0 0.00 0.00 0.00 82 1018.2
20260510054839 48 244 0.0 9.0 0.00 0.00 0.00 81 1018.2
20260510054326 48 345 0.0 9.0 0.00 0.00 0.00 81 1018.2
20260510053818 48 103 0.0 9.0 0.00 0.00 0.00 81 1018.1
20260510053305 48 306 0.0 9.0 0.00 0.00 0.00 81 1018.2
20260510052142 48 299 0.0 6.0 0.00 0.00 0.00 81 1018.2
20260510051642 48 63 0.0 6.0 0.00 0.00 0.00 81 1018.3
20260510051151 48 271 0.0 0.0 0.00 0.00 0.00 81 1018.3
20260510050640 48 318 0.0 7.0 0.00 0.00 0.00 81 1018.3
20260510050137 48 226 0.0 7.0 0.00 0.00 0.00 81 1018.3
20260510045645 48 315 0.0 7.0 0.00 0.00 0.00 81 1018.2
20260510045127 48 116 0.0 6.0 0.00 0.00 0.00 81 1018.2
20260510044627 48 262 0.0 6.0 0.00 0.00 0.00 82 1018.2
20260510044116 49 274 0.0 6.0 0.00 0.00 0.00 82 1018.2
20260510043607 49 15 0.0 9.0 0.00 0.00 0.00 82 1018.2
20260510043052 49 273 0.0 9.0 0.00 0.00 0.00 82 1018.1
20260510042600 49 259 0.0 7.0 0.00 0.00 0.00 82 1018.0
20260510042103 49 281 0.0 7.0 0.00 0.00 0.00 82 1018.1
20260510041603 49 274 0.0 3.0 0.00 0.00 0.00 83 1018.0
20260510040427 49 340 0.0 9.0 0.00 0.00 0.00 83 1017.9
20260510035934 49 54 0.0 9.0 0.00 0.00 0.00 83 1017.9
20260510035427 49 175 0.0 7.0 0.00 0.00 0.00 83 1017.9
20260510034242 49 286 0.0 9.0 0.00 0.00 0.00 82 1018.0
20260510033751 49 264 0.0 9.0 0.00 0.00 0.00 82 1018.1
20260510033244 50 305 0.0 7.0 0.00 0.00 0.00 82 1018.2
20260510032730 50 0 0.0 4.0 0.00 0.00 0.00 82 1018.2
20260510032232 50 275 0.0 7.0 0.00 0.00 0.00 82 1018.3
20260510031054 50 218 0.0 7.0 0.00 0.00 0.00 82 1018.3
20260510030558 50 273 0.0 7.0 0.00 0.00 0.00 82 1018.3
20260510025602 50 327 0.0 3.0 0.00 0.00 0.00 82 1018.4
20260510025049 50 62 0.0 3.0 0.00 0.00 0.00 82 1018.4
20260510024558 50 55 0.0 0.0 0.00 0.00 0.00 82 1018.4
20260510023419 50 333 0.0 9.0 0.00 0.00 0.00 82 1018.6
20260510022252 50 313 0.0 2.0 0.00 0.00 0.00 82 1018.5
20260510021800 50 225 0.0 9.0 0.00 0.00 0.00 82 1018.6
20260510021307 50 285 0.0 7.0 0.00 0.00 0.00 82 1018.6
20260510020748 50 0 0.0 3.0 0.00 0.00 0.00 82 1018.6
20260510020235 50 355 0.0 3.0 0.00 0.00 0.00 82 1018.6
20260510015745 50 227 0.0 0.0 0.00 0.00 0.00 82 1018.6
20260510015251 50 93 0.0 3.0 0.00 0.00 0.00 82 1018.6
20260510014735 50 250 0.0 6.0 0.00 0.00 0.00 82 1018.7
20260510014233 50 119 0.0 2.0 0.00 0.00 0.00 82 1018.8
20260510013729 50 277 0.0 7.0 0.00 0.00 0.00 82 1018.7
20260510013223 50 302 0.0 5.0 0.00 0.00 0.00 83 1018.7
20260510012712 50 75 0.0 5.0 0.00 0.00 0.00 83 1018.7
20260510012218 50 330 0.0 5.0 0.00 0.00 0.00 83 1018.6
20260510011720 50 63 0.0 5.0 0.00 0.00 0.00 83 1018.6
20260510011223 50 256 0.0 6.0 0.00 0.00 0.00 83 1018.6
20260510010706 50 298 0.0 6.0 0.00 0.00 0.00 83 1018.7
20260510010212 50 36 0.0 6.0 0.00 0.00 0.00 83 1018.8
20260510005715 50 355 0.0 6.0 0.00 0.00 0.00 83 1018.6
20260510005220 50 299 0.0 12.0 0.00 0.00 0.00 83 1018.4
20260510004054 50 283 0.0 7.0 0.00 0.00 0.00 83 1018.4
20260510003556 50 331 0.0 7.0 0.00 0.00 0.00 83 1018.5
20260510003105 50 306 0.0 2.0 0.00 0.00 0.00 83 1018.5
20260510002557 50 13 0.0 3.0 0.00 0.00 0.00 83 1018.4
20260510002057 50 215 0.0 2.0 0.00 0.00 0.00 83 1018.5
20260510001556 50 355 0.0 12.0 0.00 0.00 0.00 83 1018.6
20260510001041 49 250 0.0 4.0 0.00 0.00 0.00 84 1018.6
20260509235928 49 97 0.0 5.0 0.00 0.00 0.00 84 1018.6
20260509234809 49 206 0.0 6.0 0.00 0.00 0.00 84 1018.5
20260509234252 49 283 0.0 7.0 0.00 0.00 0.00 84 1018.6
20260509233754 49 207 0.0 7.0 0.00 0.00 0.00 84 1018.6
20260509233252 49 319 0.0 8.0 0.00 0.00 0.00 84 1018.7
20260509232750 49 294 0.0 8.0 0.00 0.00 0.00 84 1018.7
20260509231613 49 292 0.0 8.0 0.00 0.00 0.00 84 1018.8
20260509231055 49 279 0.0 3.0 0.00 0.00 0.00 84 1018.8
20260509225910 50 81 0.0 1.0 0.00 0.00 0.00 84 1018.5
20260509225356 50 293 0.0 9.0 0.00 0.00 0.00 84 1018.5
20260509224238 50 273 0.0 0.0 0.00 0.00 0.00 83 1018.4
20260509223742 50 307 0.0 6.0 0.00 0.00 0.00 83 1018.4
20260509223232 50 204 0.0 2.0 0.00 0.00 0.00 83 1018.5
20260509222108 51 49 0.0 0.0 0.00 0.00 0.00 82 1018.5
20260509221608 51 271 0.0 6.0 0.00 0.00 0.00 82 1018.5
20260509221118 51 106 0.0 6.0 0.00 0.00 0.00 82 1018.5
20260509220616 51 290 0.0 6.0 0.00 0.00 0.00 82 1018.5
20260509220111 51 235 0.0 6.0 0.00 0.00 0.00 82 1018.6
20260509215612 52 167 0.0 5.0 0.00 0.00 0.00 82 1018.4
20260509215054 52 313 0.0 4.0 0.00 0.00 0.00 82 1018.4
20260509214548 52 294 0.0 4.0 0.00 0.00 0.00 81 1018.3
20260509214052 52 265 0.0 4.0 0.00 0.00 0.00 81 1018.2
20260509213539 52 34 0.0 4.0 0.00 0.00 0.00 79 1018.2
20260509211136 53 255 0.0 4.0 0.00 0.00 0.00 77 1017.9
20260509210641 53 283 0.0 5.0 0.00 0.00 0.00 77 1017.8
20260509210137 53 282 0.0 5.0 0.00 0.00 0.00 76 1017.7
20260509205618 53 290 0.0 5.0 0.00 0.00 0.00 76 1017.8
20260509205059 54 13 0.0 0.0 0.00 0.00 0.00 76 1017.8
20260509204552 54 328 0.0 3.0 0.00 0.00 0.00 75 1017.8
20260509204047 54 303 0.0 0.0 0.00 0.00 0.00 75 1017.7
20260509202924 55 281 0.0 5.0 0.00 0.00 0.00 74 1017.6
20260509202407 55 257 0.0 5.0 0.00 0.00 0.00 74 1017.7
20260509201848 55 123 0.0 1.0 0.00 0.00 0.00 74 1017.6
20260509200702 56 80 0.0 5.0 0.00 0.00 0.00 72 1017.4
20260509200155 57 219 0.0 5.0 0.00 0.00 0.00 71 1017.3